| time (UTC) | temp C | wind direction | speed KPH | gust KPH | rain 1hr cm | rain 24hr cm | rain mn cm | humidity % | barometer mb |
| 20260507080030 | 8 | 0 | 0.0 | 0.0 | 0.00 | 0.74 | 0.00 | 78 | 1011.8 |
| 20260507074528 | 8 | 0 | 0.0 | 0.0 | 0.00 | 0.74 | 0.00 | 77 | 1012.0 |
| 20260507073028 | 8 | 0 | 0.0 | 0.0 | 0.00 | 0.74 | 0.00 | 75 | 1012.1 |
| 20260507071530 | 9 | 0 | 0.0 | 0.0 | 0.00 | 0.74 | 0.00 | 75 | 1012.3 |
| 20260507070028 | 10 | 0 | 0.0 | 1.6 | 0.00 | 0.74 | 0.00 | 74 | 1012.5 |
| 20260507064528 | 10 | 0 | 0.0 | 0.0 | 0.00 | 0.74 | 0.00 | 75 | 1012.2 |
| 20260507063032 | 10 | 0 | 0.0 | 0.0 | 0.00 | 0.74 | 0.00 | 77 | 1012.2 |
| 20260507061529 | 10 | 0 | 0.0 | 1.6 | 0.00 | 0.74 | 0.00 | 78 | 1012.2 |
| 20260507060030 | 10 | 0 | 0.0 | 0.0 | 0.00 | 0.74 | 0.00 | 83 | 1012.4 |
| 20260507054527 | 10 | 292 | 0.0 | 1.6 | 0.00 | 0.74 | 0.00 | 84 | 1012.2 |
| 20260507053030 | 10 | 0 | 0.0 | 0.0 | 0.00 | 0.74 | 0.00 | 86 | 1012.3 |
| 20260507051528 | 10 | 0 | 0.0 | 0.0 | 0.00 | 0.74 | 0.00 | 87 | 1012.3 |
| 20260507050035 | 10 | 0 | 0.0 | 0.0 | 0.00 | 0.74 | 0.00 | 87 | 1012.1 |
| 20260507044531 | 10 | 0 | 0.0 | 0.0 | 0.00 | 0.74 | 0.00 | 86 | 1012.1 |
| 20260507043028 | 10 | 0 | 0.0 | 0.0 | 0.00 | 0.74 | 0.00 | 87 | 1012.3 |
| 20260507041543 | 11 | 0 | 0.0 | 0.0 | 0.00 | 0.74 | 0.00 | 87 | 1012.1 |
| 20260507040029 | 11 | 0 | 0.0 | 0.0 | 0.00 | 0.74 | 0.00 | 87 | 1011.9 |
| 20260507034528 | 11 | 0 | 0.0 | 0.0 | 0.00 | 0.74 | 0.74 | 85 | 1011.9 |
| 20260507033032 | 11 | 0 | 0.0 | 3.2 | 0.00 | 0.74 | 0.74 | 85 | 1011.7 |
| 20260507031528 | 11 | 0 | 0.0 | 0.0 | 0.00 | 0.74 | 0.74 | 86 | 1011.8 |
| 20260507030028 | 11 | 0 | 0.0 | 4.8 | 0.00 | 0.74 | 0.74 | 85 | 1011.9 |
| 20260507024529 | 11 | 0 | 0.0 | 1.6 | 0.00 | 0.74 | 0.74 | 84 | 1011.6 |
| 20260507023030 | 11 | 0 | 0.0 | 4.8 | 0.00 | 0.74 | 0.74 | 84 | 1012.0 |
| 20260507021527 | 11 | 63 | 1.6 | 4.8 | 0.00 | 0.74 | 0.74 | 84 | 1011.6 |
| 20260507020030 | 12 | 32 | 0.0 | 4.8 | 0.00 | 0.74 | 0.74 | 84 | 1011.9 |
| 20260507014546 | 12 | 0 | 0.0 | 1.6 | 0.00 | 0.74 | 0.74 | 84 | 1012.1 |
| 20260507013041 | 12 | 0 | 0.0 | 6.4 | 0.00 | 0.74 | 0.74 | 83 | 1012.2 |
| 20260507011537 | 12 | 60 | 0.0 | 9.7 | 0.00 | 0.74 | 0.74 | 84 | 1012.0 |
| 20260507010033 | 12 | 0 | 0.0 | 4.8 | 0.00 | 0.74 | 0.74 | 84 | 1011.6 |
| 20260507004527 | 12 | 0 | 0.0 | 4.8 | 0.00 | 0.74 | 0.74 | 84 | 1011.6 |
| 20260507003029 | 13 | 0 | 1.6 | 4.8 | 0.00 | 0.74 | 0.74 | 84 | 1011.0 |
| 20260507001530 | 13 | 0 | 0.0 | 9.7 | 0.00 | 0.74 | 0.74 | 84 | 1010.6 |
| 20260507000032 | 13 | 70 | 3.2 | 8.0 | 0.00 | 0.74 | 0.74 | 84 | 1010.2 |
| 20260506234530 | 14 | 67 | 4.8 | 16.1 | 0.00 | 0.74 | 0.74 | 84 | 1009.7 |
| 20260506233028 | 15 | 0 | 0.0 | 1.6 | 0.00 | 0.74 | 0.74 | 86 | 1009.6 |
| 20260506231531 | 15 | 0 | 0.0 | 0.0 | 0.00 | 0.74 | 0.74 | 86 | 1009.2 |
| 20260506230031 | 16 | 0 | 0.0 | 1.6 | 0.00 | 0.74 | 0.74 | 86 | 1009.2 |
| 20260506224530 | 16 | 0 | 0.0 | 0.0 | 0.00 | 0.74 | 0.74 | 85 | 1009.0 |
| 20260506223029 | 16 | 0 | 0.0 | 1.6 | 0.00 | 0.74 | 0.74 | 84 | 1008.8 |
| 20260506221527 | 17 | 0 | 0.0 | 4.8 | 0.00 | 0.74 | 0.74 | 84 | 1008.6 |
| 20260506220030 | 17 | 0 | 0.0 | 3.2 | 0.00 | 0.74 | 0.74 | 84 | 1008.4 |
| 20260506214531 | 18 | 245 | 0.0 | 3.2 | 0.00 | 0.74 | 0.74 | 86 | 1008.0 |
| 20260506213030 | 18 | 0 | 0.0 | 4.8 | 0.00 | 0.74 | 0.74 | 85 | 1007.7 |
| 20260506211527 | 18 | 219 | 1.6 | 9.7 | 0.03 | 0.74 | 0.74 | 86 | 1007.4 |
| 20260506210031 | 18 | 166 | 1.6 | 6.4 | 0.03 | 0.74 | 0.74 | 89 | 1007.2 |
| 20260506204528 | 17 | 226 | 1.6 | 6.4 | 0.03 | 0.74 | 0.74 | 90 | 1007.1 |
| 20260506203035 | 17 | 0 | 0.0 | 1.6 | 0.03 | 0.74 | 0.74 | 90 | 1007.0 |
| 20260506201531 | 17 | 0 | 0.0 | 1.6 | 0.00 | 0.71 | 0.71 | 89 | 1007.1 |
| 20260506200029 | 17 | 236 | 0.0 | 6.4 | 0.00 | 0.71 | 0.71 | 89 | 1007.0 |
| 20260506194530 | 17 | 235 | 1.6 | 8.0 | 0.00 | 0.71 | 0.71 | 89 | 1007.0 |
| 20260506193031 | 17 | 236 | 4.8 | 11.3 | 0.00 | 0.71 | 0.71 | 89 | 1007.2 |
| 20260506191532 | 17 | 243 | 6.4 | 11.3 | 0.00 | 0.71 | 0.71 | 89 | 1007.2 |
| 20260506190030 | 16 | 225 | 3.2 | 8.0 | 0.00 | 0.71 | 0.71 | 90 | 1007.2 |
| 20260506184532 | 16 | 218 | 3.2 | 12.9 | 0.00 | 0.71 | 0.71 | 91 | 1007.4 |
| 20260506183030 | 16 | 233 | 4.8 | 12.9 | 0.00 | 0.71 | 0.71 | 92 | 1007.5 |
| 20260506181535 | 16 | 240 | 8.0 | 12.9 | 0.00 | 0.71 | 0.71 | 92 | 1007.3 |
| 20260506180038 | 15 | 222 | 6.4 | 14.5 | 0.03 | 0.71 | 0.71 | 93 | 1007.5 |
| 20260506174529 | 15 | 226 | 8.0 | 16.1 | 0.03 | 0.71 | 0.71 | 93 | 1007.7 |
| 20260506173035 | 15 | 245 | 8.0 | 12.9 | 0.05 | 0.71 | 0.71 | 93 | 1007.5 |
| 20260506171546 | 15 | 226 | 8.0 | 14.5 | 0.05 | 0.71 | 0.71 | 93 | 1007.7 |
| 20260506170033 | 15 | 245 | 4.8 | 12.9 | 0.03 | 0.69 | 0.69 | 92 | 1007.8 |
| 20260506164528 | 15 | 212 | 4.8 | 11.3 | 0.00 | 0.66 | 0.66 | 92 | 1007.9 |
| 20260506163034 | 15 | 224 | 3.2 | 9.7 | 0.00 | 0.66 | 0.66 | 91 | 1007.7 |
| 20260506161539 | 15 | 237 | 6.4 | 12.9 | 0.00 | 0.66 | 0.66 | 91 | 1007.8 |
| 20260506160032 | 15 | 247 | 8.0 | 19.3 | 0.03 | 0.66 | 0.66 | 91 | 1007.7 |
| 20260506154533 | 15 | 220 | 8.0 | 14.5 | 0.05 | 0.66 | 0.66 | 91 | 1007.7 |
| 20260506153028 | 15 | 237 | 9.7 | 19.3 | 0.10 | 0.66 | 0.66 | 91 | 1007.5 |
| 20260506151530 | 15 | 250 | 8.0 | 19.3 | 0.18 | 0.66 | 0.66 | 91 | 1007.3 |
| 20260506150035 | 15 | 232 | 9.7 | 16.1 | 0.18 | 0.64 | 0.64 | 91 | 1007.6 |
| 20260506144530 | 15 | 218 | 6.4 | 17.7 | 0.18 | 0.61 | 0.61 | 91 | 1007.7 |
| 20260506143031 | 15 | 227 | 6.4 | 12.9 | 0.18 | 0.56 | 0.56 | 91 | 1007.9 |
| 20260506141530 | 15 | 214 | 3.2 | 9.7 | 0.18 | 0.48 | 0.48 | 91 | 1008.0 |
| 20260506140028 | 15 | 224 | 3.2 | 6.4 | 0.20 | 0.46 | 0.46 | 91 | 1007.8 |
| 20260506134605 | 15 | 226 | 0.0 | 6.4 | 0.18 | 0.43 | 0.43 | 92 | 1007.7 |
| 20260506133030 | 15 | 251 | 1.6 | 4.8 | 0.18 | 0.38 | 0.38 | 92 | 1008.0 |
| 20260506131529 | 15 | 0 | 0.0 | 1.6 | 0.18 | 0.30 | 0.30 | 91 | 1008.1 |
| 20260506130028 | 15 | 0 | 0.0 | 0.0 | 0.15 | 0.25 | 0.25 | 91 | 1008.1 |
| 20260506124530 | 15 | 0 | 0.0 | 0.0 | 0.18 | 0.25 | 0.25 | 91 | 1008.2 |
| 20260506123030 | 15 | 0 | 0.0 | 1.6 | 0.15 | 0.20 | 0.20 | 89 | 1008.3 |
| 20260506121534 | 15 | 260 | 0.0 | 6.4 | 0.10 | 0.13 | 0.13 | 89 | 1008.6 |
| 20260506120029 | 15 | 0 | 0.0 | 1.6 | 0.10 | 0.10 | 0.10 | 89 | 1008.5 |
| 20260506114534 | 15 | 0 | 0.0 | 1.6 | 0.08 | 0.08 | 0.08 | 88 | 1008.2 |
| 20260506113033 | 15 | 0 | 0.0 | 1.6 | 0.05 | 0.05 | 0.05 | 85 | 1008.0 |
| 20260506111529 | 16 | 297 | 0.0 | 1.6 | 0.03 | 0.03 | 0.03 | 80 | 1008.0 |
| 20260506110030 | 17 | 291 | 0.0 | 3.2 | 0.00 | 0.00 | 0.00 | 73 | 1007.7 |
| 20260506104530 | 17 | 288 | 0.0 | 3.2 | 0.00 | 0.00 | 0.00 | 68 | 1007.5 |
| 20260506103029 | 17 | 293 | 0.0 | 1.6 | 0.00 | 0.00 | 0.00 | 68 | 1007.2 |
| 20260506101528 | 17 | 234 | 1.6 | 8.0 | 0.00 | 0.00 | 0.00 | 68 | 1007.1 |
| 20260506100033 | 17 | 0 | 1.6 | 4.8 | 0.00 | 0.00 | 0.00 | 68 | 1006.9 |
| 20260506094528 | 17 | 228 | 0.0 | 1.6 | 0.00 | 0.00 | 0.00 | 69 | 1007.0 |
| 20260506093030 | 17 | 274 | 0.0 | 1.6 | 0.00 | 0.00 | 0.00 | 68 | 1007.0 |
| 20260506091528 | 16 | 0 | 0.0 | 1.6 | 0.00 | 0.00 | 0.00 | 73 | 1007.1 |
| 20260506090030 | 17 | 0 | 0.0 | 1.6 | 0.00 | 0.00 | 0.00 | 72 | 1007.3 |
| 20260506084531 | 17 | 291 | 0.0 | 1.6 | 0.00 | 0.00 | 0.00 | 64 | 1007.3 |
| 20260506083028 | 17 | 283 | 0.0 | 0.0 | 0.00 | 0.00 | 0.00 | 69 | 1007.3 |
| 20260506081532 | 17 | 0 | 0.0 | 1.6 | 0.00 | 0.00 | 0.00 | 63 | 1007.5 |